User: anonymous   Login
Location: Caltech
(34.1382°N, 118.1253°W)
Time: 02:30:54
(UTC-07:00)
Language:

PAYLOAD A - Orbit

View from above orbital plane
View from above orbital plane
View from above satellite
View from above satellite

Ground track
Ground track

The orbit data is extracted from the following two-line orbital elements,

1 27840U 03031A   18172.90080504 -.00000005 +00000-0 +11690-4 0  9990
2 27840 098.2322 160.0258 0099523 085.0344 276.2197 14.38904904786381
Epoch (UTC): 21 June 2018 21:37:09
Eccentricity: 0.0099523
inclination: 98.2322°
perigee height: 691 km
apogee height: 833 km
right ascension of ascending node: 160.0258°
argument of perigee: 85.0344°
revolutions per day: 14.38904904
mean anomaly at epoch: 276.2197°
orbit number at epoch: 78638

The dashed part of the orbit path shows where the satellite is in the earth's shadow,  

DLR